Weather History for Wadesboro, NC

Change the Weather History Date:

Tuesday, April 9, 2013

  Actual Average (KCLT) Record (KCLT)
Temperature  
Mean Temperature 68 °F 58 °F  
Max Temperature 83 °F 70 °F 89 °F (1893)
Min Temperature 52 °F 45 °F 25 °F (1972)
Degree Days  
Heating Degree Days 0 8  
Month to date heating degree days 80  
Since 1 July heating degree days 3212  
Cooling Degree Days 2 1  
Month to date cooling degree days 8  
Year to date cooling degree days 13  
Growing Degree Days 18 (Base 50)    
Moisture  
Dew Point 55 °F    
Average Humidity 61    
Maximum Humidity 97    
Minimum Humidity 33    
Precipitation  
Precipitation 0.00 in 0.10 in 2.07 in (1998)
Month to date precipitation 0.95  
Year to date precipitation 11.69  
Snow  
Snow 0.00 in 0.00 in 0.50 in (1880)
Month to date snowfall 0.0  
Since 1 July snowfall 4.3  
Snow Depth -    
Sea Level Pressure  
Sea Level Pressure 30.14 in    
Wind  
Wind Speed 5 mph (SSW)    
Max Wind Speed 10 mph    
Max Gust Speed 17 mph    
Visibility 10 miles    
Events      
T = Trace of Precipitation, MM = Missing Value Source: NWS Daily Summary

Daily Weather History Graph

Daily Weather History Graph

Search for Another Location

Airport:

Trip Planner

Search our weather history database for the weather conditions in past years. The results will help you decide how hot, cold, wet, or windy it might be!

Date:

Astronomy

Apr. 09, 2013 Rise Set
Actual Time 6:55 AM EDT 7:48 PM EDT
Civil Twilight 6:30 AM EDT 8:14 PM EDT
Nautical Twilight 5:59 AM EDT 8:44 PM EDT
Astronomical Twilight 5:28 AM EDT 9:16 PM EDT
Moon 6:16 AM EDT (4/9) 7:22 PM EDT (4/9)
Length of Visible Light 13h 43m
Length of Day
12h 52m
Waning Crescent, 1% of the Moon is Illuminated
Apr 9
Waning Crescent
Apr 10
New
Apr 18
First Quarter
Apr 25
Full
May 2
Last Quarter

Hourly Weather History & Observations

Time (EDT) Temp. Heat Index Dew Point Humidity Pressure Visibility Wind Dir Wind Speed Gust Speed Precip Events Conditions
12:15 AM 66.4 °F - 55.4 °F 68% 30.12 in 10.0 mi South 9.2 mph - N/A   Clear
12:35 AM 65.8 °F - 55.6 °F 69% 30.12 in 10.0 mi South 6.9 mph - N/A   Clear
12:55 AM 64.9 °F - 55.8 °F 72% 30.12 in 10.0 mi South 5.8 mph - N/A   Clear
1:15 AM 64.8 °F - 56.3 °F 74% 30.12 in 10.0 mi South 6.9 mph - N/A   Clear
1:35 AM 64.4 °F - 55.9 °F 74% 30.12 in 10.0 mi South 5.8 mph - N/A   Clear
1:55 AM 64.4 °F - 55.6 °F 73% 30.12 in 10.0 mi South 5.8 mph - N/A   Clear
2:15 AM 64.4 °F - 55.4 °F 73% 30.12 in 10.0 mi South 4.6 mph - N/A   Clear
2:35 AM 63.9 °F - 55.6 °F 74% 30.12 in 10.0 mi South 5.8 mph - N/A   Clear
2:55 AM 63.5 °F - 55.4 °F 75% 30.12 in 10.0 mi South 4.6 mph - N/A   Clear
3:15 AM 63.5 °F - 55.4 °F 75% 30.12 in 10.0 mi SSW 3.5 mph - N/A   Clear
3:35 AM 62.8 °F - 55.6 °F 77% 30.12 in 10.0 mi SSW 4.6 mph - N/A   Clear
3:55 AM 62.6 °F - 55.8 °F 78% 30.13 in 10.0 mi SSW 4.6 mph - N/A   Clear
4:15 AM 61.7 °F - 55.6 °F 80% 30.13 in 10.0 mi Calm Calm - N/A   Clear
4:35 AM 60.8 °F - 55.8 °F 83% 30.14 in 10.0 mi Calm Calm - N/A   Clear
4:55 AM 60.1 °F - 55.8 °F 86% 30.14 in 10.0 mi Calm Calm - N/A   Clear
5:15 AM 59.9 °F - 55.9 °F 87% 30.14 in 10.0 mi Calm Calm - N/A   Clear
5:35 AM 55.9 °F - 53.1 °F 90% 30.14 in 10.0 mi Calm Calm - N/A   Clear
5:55 AM 54.5 °F - 52.3 °F 92% 30.15 in 7.0 mi Calm Calm - N/A   Clear
6:15 AM 54.1 °F - 52.7 °F 95% 30.16 in 7.0 mi Calm Calm - N/A   Clear
6:35 AM 53.6 °F - 52.3 °F 95% 30.17 in 7.0 mi Calm Calm - N/A   Clear
6:55 AM 53.6 °F - 52.5 °F 96% 30.18 in 4.0 mi Calm Calm - N/A   Clear
7:15 AM 54.7 °F - 54.0 °F 97% 30.18 in 4.0 mi Calm Calm - N/A   Clear
7:35 AM 52.2 °F - 51.3 °F 97% 30.19 in 5.0 mi Calm Calm - N/A   Clear
7:55 AM 54.1 °F - 53.4 °F 97% 30.20 in 10.0 mi Calm Calm - N/A   Clear
8:15 AM 57.9 °F - 57.0 °F 97% 30.20 in 7.0 mi Calm Calm - N/A   Clear
8:35 AM 61.3 °F - 58.1 °F 89% 30.20 in 10.0 mi Calm Calm - N/A   Clear
8:55 AM 63.1 °F - 57.9 °F 83% 30.21 in 10.0 mi SSW 3.5 mph - N/A   Clear
9:15 AM 65.1 °F - 58.1 °F 78% 30.21 in 10.0 mi SSW 3.5 mph - N/A   Clear
9:35 AM 67.1 °F - 58.1 °F 73% 30.21 in 10.0 mi SSW 5.8 mph - N/A   Clear
9:55 AM 68.4 °F - 57.7 °F 69% 30.21 in 10.0 mi SSW 5.8 mph - N/A   Clear
10:15 AM 70.5 °F - 58.3 °F 65% 30.21 in 10.0 mi WSW 6.9 mph - N/A   Clear
10:35 AM 71.6 °F - 58.1 °F 62% 30.21 in 10.0 mi SW 4.6 mph - N/A   Clear
10:55 AM 73.4 °F - 58.8 °F 60% 30.21 in 10.0 mi SSW 6.9 mph - N/A   Clear
11:15 AM 74.5 °F - 57.6 °F 55% 30.21 in 10.0 mi SSW 5.8 mph - N/A   Clear
11:35 AM 76.1 °F - 56.7 °F 51% 30.21 in 10.0 mi SSW 8.1 mph - N/A   Clear
11:55 AM 77.4 °F - 57.4 °F 50% 30.20 in 10.0 mi WSW 5.8 mph - N/A   Clear
12:15 PM 77.9 °F - 56.5 °F 48% 30.20 in 10.0 mi SSW 8.1 mph - N/A   Clear
12:35 PM 79.2 °F - 56.8 °F 46% 30.18 in 10.0 mi WSW 3.5 mph - N/A   Clear
12:55 PM 80.1 °F 80.2 °F 55.8 °F 43% 30.18 in 10.0 mi WSW 6.9 mph - N/A   Clear
1:15 PM 80.6 °F 80.2 °F 53.1 °F 38% 30.17 in 10.0 mi SW 10.4 mph - N/A   Scattered Clouds
1:35 PM 81.1 °F 80.7 °F 54.1 °F 39% 30.16 in 10.0 mi SW 6.9 mph - N/A   Scattered Clouds
1:55 PM 80.8 °F 80.4 °F 53.6 °F 39% 30.15 in 10.0 mi West 5.8 mph - N/A   Scattered Clouds
2:15 PM 81.3 °F 80.8 °F 54.1 °F 39% 30.15 in 10.0 mi SSW 5.8 mph - N/A   Mostly Cloudy
2:35 PM 81.1 °F 80.6 °F 53.2 °F 38% 30.14 in 10.0 mi South 9.2 mph - N/A   Mostly Cloudy
2:55 PM 81.7 °F 81.1 °F 54.3 °F 39% 30.13 in 10.0 mi South 6.9 mph - N/A   Mostly Cloudy
3:15 PM 81.3 °F - 52.3 °F 37% 30.12 in 10.0 mi South 4.6 mph - N/A   Scattered Clouds
3:35 PM 83.3 °F - 52.5 °F 34% 30.12 in 10.0 mi SSW 8.1 mph - N/A   Scattered Clouds
3:55 PM 83.1 °F - 52.3 °F 34% 30.11 in 10.0 mi SSW 9.2 mph - N/A   Mostly Cloudy
4:15 PM 82.4 °F 81.4 °F 53.4 °F 37% 30.10 in 10.0 mi South 3.5 mph 17.3 mph N/A   Mostly Cloudy
4:35 PM 82.2 °F - 52.0 °F 35% 30.10 in 10.0 mi South 4.6 mph - N/A   Mostly Cloudy
4:55 PM 82.6 °F - 52.0 °F 35% 30.10 in 10.0 mi SSW 6.9 mph - N/A   Scattered Clouds
5:15 PM 83.5 °F - 52.7 °F 34% 30.10 in 10.0 mi SSW 3.5 mph - N/A   Scattered Clouds
5:35 PM 81.5 °F - 52.5 °F 37% 30.10 in 10.0 mi SSW 4.6 mph 16.1 mph N/A   Scattered Clouds
5:55 PM 82.6 °F - 50.9 °F 33% 30.10 in 10.0 mi SSW 8.1 mph - N/A   Scattered Clouds
6:15 PM 81.0 °F - 52.3 °F 37% 30.10 in 10.0 mi SSW 4.6 mph - N/A   Clear
6:35 PM 81.7 °F - 52.5 °F 36% 30.10 in 10.0 mi SSW 5.8 mph - N/A   Scattered Clouds
6:55 PM 81.1 °F - 52.0 °F 36% 30.10 in 10.0 mi SSW 4.6 mph - N/A   Scattered Clouds
7:15 PM 79.7 °F - 52.7 °F 39% 30.10 in 10.0 mi SSW 3.5 mph - N/A   Clear
7:35 PM 77.7 °F - 53.2 °F 43% 30.10 in 10.0 mi Calm Calm - N/A   Clear
7:55 PM 75.4 °F - 54.0 °F 47% 30.11 in 10.0 mi Calm Calm - N/A   Clear
8:15 PM 74.5 °F - 54.5 °F 50% 30.11 in 10.0 mi South 3.5 mph - N/A   Clear
8:35 PM 73.2 °F - 54.9 °F 52% 30.11 in 10.0 mi South 3.5 mph - N/A   Clear
8:55 PM 72.5 °F - 54.9 °F 54% 30.12 in 10.0 mi South 3.5 mph - N/A   Clear
9:15 PM 69.4 °F - 55.9 °F 62% 30.12 in 10.0 mi South 3.5 mph - N/A   Clear
9:35 PM 71.1 °F - 55.8 °F 58% 30.13 in 10.0 mi South 4.6 mph - N/A   Clear
9:55 PM 71.1 °F - 55.0 °F 57% 30.13 in 10.0 mi South 3.5 mph - N/A   Clear
10:15 PM 70.7 °F - 55.2 °F 58% 30.13 in 10.0 mi South 3.5 mph - N/A   Clear
10:55 PM 67.8 °F - 55.2 °F 64% 30.12 in 10.0 mi South 3.5 mph - N/A   Clear
11:15 PM 70.3 °F - 54.7 °F 58% 30.11 in 10.0 mi South 4.6 mph - N/A   Clear
11:35 PM 69.8 °F - 54.9 °F 59% 30.11 in 10.0 mi South 4.6 mph - N/A   Clear
11:55 PM 69.8 °F - 55.4 °F 60% 30.10 in 10.0 mi South 4.6 mph - N/A   Clear